Fort Morgan, CO

9:46 PM MST on February 25, 2017 (GMT -0700)
Fort Morgan

Weather History for KFMM - October, 2012

Change the Weather History Date:

Thursday, October 18, 2012

  Actual Average (KAKO) Record (KAKO)
Temperature  
Mean Temperature 46 °F -  
Max Temperature 60 °F 59 °F 85 °F (1958)
Min Temperature 31 °F 33 °F 22 °F (1976)
Degree Days  
Heating Degree Days 20    
Moisture  
Dew Point 13 °F    
Average Humidity 32    
Maximum Humidity 59    
Minimum Humidity 13    
Precipitation  
Precipitation 0.00 in - - ()
Sea Level Pressure  
Sea Level Pressure 30.05 in    
Wind  
Wind Speed 21 mph ()    
Max Wind Speed 45 mph    
Max Gust Speed 53 mph    
Visibility 9.9 miles    
Events      
Averages and records for this station are not official NWS values.
T = Trace of Precipitation, MM = Missing Value Source: Averaged Metar Reports

Daily Weather History Graph

Daily Weather History Graph

Search for Another Location

Airport or City:

Trip Planner

Search our weather history database for the weather conditions in past years. The results will help you decide how hot, cold, wet, or windy it might be!

Date:

Astronomy

Oct. 18, 2012 Rise Set
Actual Time 7:09 AM MDT 6:10 PM MDT
Civil Twilight 6:42 AM MDT 6:37 PM MDT
Nautical Twilight 6:10 AM MDT 7:09 PM MDT
Astronomical Twilight 5:39 AM MDT 7:40 PM MDT
Moon 10:54 AM MDT (10/18) 8:46 PM MDT (10/18)
Length of Visible Light 11h 55m
Length of Day
11h 00m
Waxing Crescent, 15% of the Moon is Illuminated
Oct 18
Waxing Crescent
Oct 21
First Quarter
Oct 29
Full
Nov 6
Last Quarter
Nov 13
New

Hourly Weather History & Observations

Time (MDT) Temp. Windchill Dew Point Humidity Pressure Visibility Wind Dir Wind Speed Gust Speed Precip Events Conditions
12:35 AM 34.7 °F 25.1 °F 18.5 °F 52% 30.04 in 10.0 mi North 15.0 mph - N/A   Clear
12:55 AM 35.1 °F 25.2 °F 19.2 °F 53% 30.04 in 10.0 mi North 16.1 mph - N/A   Clear
1:15 AM 34.9 °F 24.9 °F 19.8 °F 54% 30.04 in 10.0 mi NNW 16.1 mph - N/A   Clear
1:35 AM 34.7 °F 24.7 °F 19.6 °F 54% 30.04 in 10.0 mi NNW 16.1 mph - N/A   Clear
1:55 AM 34.5 °F 24.1 °F 19.8 °F 55% 30.05 in 10.0 mi North 17.3 mph 21.9 mph N/A   Clear
2:15 AM 35.1 °F 24.1 °F 19.8 °F 54% 30.05 in 10.0 mi NNW 19.6 mph 25.3 mph N/A   Clear
2:35 AM 34.9 °F 23.9 °F 19.8 °F 54% 30.05 in 10.0 mi NNW 19.6 mph 24.2 mph N/A   Clear
2:55 AM 34.7 °F 23.7 °F 19.4 °F 54% 30.05 in 10.0 mi NNW 19.6 mph 25.3 mph N/A   Clear
3:15 AM 34.0 °F 23.0 °F 19.4 °F 55% 30.04 in 10.0 mi North 18.4 mph - N/A   Clear
3:35 AM 33.6 °F 22.6 °F 19.4 °F 56% 30.04 in 10.0 mi North 18.4 mph - N/A   Clear
4:15 AM 34.5 °F 23.8 °F 19.6 °F 54% 30.04 in 10.0 mi NNW 18.4 mph - N/A   Clear
4:35 AM 35.1 °F 23.5 °F 19.2 °F 53% 30.04 in 10.0 mi NNW 21.9 mph 25.3 mph N/A   Clear
4:55 AM 35.1 °F 23.8 °F 18.5 °F 51% 30.04 in 10.0 mi NNW 20.7 mph 25.3 mph N/A   Clear
5:15 AM 34.3 °F 23.2 °F 18.5 °F 52% 30.04 in 10.0 mi NNW 19.6 mph - N/A   Clear
5:35 AM 33.1 °F 23.4 °F 18.5 °F 55% 30.05 in 10.0 mi NNW 13.8 mph - N/A   Clear
5:55 AM 32.9 °F 25.9 °F 18.5 °F 55% 30.06 in 10.0 mi NW 8.1 mph - N/A   Clear
6:15 AM 31.8 °F - 18.0 °F 57% 30.07 in 10.0 mi Calm Calm - N/A   Clear
6:55 AM 31.6 °F 22.6 °F 18.7 °F 59% 30.06 in 10.0 mi North 11.5 mph - N/A   Clear
7:15 AM 33.1 °F 21.5 °F 16.9 °F 51% 30.06 in 10.0 mi NNW 19.6 mph 23.0 mph N/A   Clear
7:35 AM 35.4 °F 24.0 °F 15.6 °F 44% 30.06 in 10.0 mi NNW 21.9 mph 27.6 mph N/A   Clear
8:15 AM 39.4 °F 28.1 °F 14.5 °F 36% 30.07 in 10.0 mi NNW 27.6 mph 34.5 mph N/A   Clear
8:35 AM 41.0 °F 30.5 °F 14.2 °F 34% 30.07 in 10.0 mi NNW 26.5 mph 34.5 mph N/A   Clear
8:55 AM 42.6 °F 31.7 °F 14.0 °F 31% 30.08 in 10.0 mi NNW 32.2 mph 39.1 mph N/A   Clear
9:15 AM 44.2 °F 33.4 °F 13.8 °F 29% 30.09 in 10.0 mi NNW 35.7 mph 42.6 mph N/A   Clear
9:35 AM 46.0 °F 36.1 °F 13.8 °F 27% 30.08 in 10.0 mi NNW 34.5 mph 47.2 mph N/A   Clear
10:15 AM 48.2 °F - 13.6 °F 25% 30.08 in 10.0 mi NNW 38.0 mph 47.2 mph N/A   Clear
10:35 AM 50.0 °F - 14.2 °F 24% 30.09 in 10.0 mi NNW 36.8 mph 43.7 mph N/A   Clear
10:55 AM 51.6 °F - 14.4 °F 23% 30.09 in 10.0 mi NNW 29.9 mph 40.3 mph N/A   Clear
11:15 AM 52.7 °F - 13.6 °F 21% 30.09 in 10.0 mi NNW 29.9 mph 38.0 mph N/A   Clear
11:35 AM 54.5 °F - 12.0 °F 19% 30.09 in 10.0 mi NNW 34.5 mph 47.2 mph N/A   Clear
11:55 AM 56.7 °F - 10.0 °F 16% 30.08 in 10.0 mi NW 34.5 mph 46.0 mph N/A   Clear
12:15 PM 57.4 °F - 8.8 °F 14% 30.07 in 10.0 mi NNW 42.6 mph 49.5 mph N/A   Clear
12:35 PM 57.7 °F - 8.8 °F 14% 30.06 in 10.0 mi NNW 38.0 mph 48.3 mph N/A   Clear
12:55 PM 57.9 °F - 8.4 °F 14% 30.06 in 10.0 mi NNW 40.3 mph 49.5 mph N/A   Clear
1:15 PM 58.5 °F - 7.9 °F 13% 30.05 in 7.0 mi NNW 44.9 mph 52.9 mph N/A   Clear
1:35 PM 58.1 °F - 8.2 °F 14% 30.05 in 10.0 mi NNW 38.0 mph 48.3 mph N/A   Clear
1:55 PM 58.8 °F - 8.2 °F 13% 30.04 in 10.0 mi NNW 39.1 mph 51.8 mph N/A   Clear
2:15 PM 59.2 °F - 8.2 °F 13% 30.03 in 10.0 mi NNW 40.3 mph 50.6 mph N/A   Clear
2:35 PM 59.0 °F - 8.4 °F 13% 30.03 in 10.0 mi NNW 36.8 mph 49.5 mph N/A   Clear
2:55 PM 59.9 °F - 8.4 °F 13% 30.02 in 10.0 mi NNW 35.7 mph 47.2 mph N/A   Clear
3:15 PM 59.5 °F - 8.2 °F 13% 30.02 in 10.0 mi NNW 39.1 mph 47.2 mph N/A   Clear
3:35 PM 60.1 °F - 8.6 °F 13% 30.02 in 10.0 mi NNW 33.4 mph 44.9 mph N/A   Clear
3:55 PM 60.3 °F - 8.2 °F 13% 30.02 in 10.0 mi NNW 36.8 mph 46.0 mph N/A   Clear
4:15 PM 60.1 °F - 7.9 °F 13% 30.02 in 10.0 mi NNW 38.0 mph 44.9 mph N/A   Clear
4:35 PM 59.9 °F - 8.1 °F 13% 30.02 in 10.0 mi NNW 31.1 mph 42.6 mph N/A   Clear
4:55 PM 59.2 °F - 8.1 °F 13% 30.02 in 10.0 mi NNW 32.2 mph 41.4 mph N/A   Clear
5:15 PM 58.1 °F - 8.1 °F 14% 30.02 in 10.0 mi North 25.3 mph 32.2 mph N/A   Clear
5:55 PM 52.5 °F - 9.3 °F 18% 30.03 in 10.0 mi North 19.6 mph - N/A   Clear
6:15 PM 49.6 °F - 9.5 °F 20% 30.04 in 10.0 mi North 17.3 mph - N/A   Clear
6:35 PM 47.8 °F - 9.5 °F 21% 30.04 in 10.0 mi North 16.1 mph - N/A   Clear
6:55 PM 46.4 °F 39.8 °F 9.5 °F 22% 30.05 in 10.0 mi North 16.1 mph - N/A   Clear
7:15 PM 46.4 °F 39.8 °F 9.5 °F 22% 30.06 in 10.0 mi North 16.1 mph - N/A   Clear
7:55 PM 45.3 °F 37.6 °F 10.0 °F 24% 30.06 in 10.0 mi North 19.6 mph - N/A   Clear
8:15 PM 44.6 °F 37.2 °F 10.4 °F 25% 30.07 in 10.0 mi North 17.3 mph 24.2 mph N/A   Clear
8:35 PM 43.2 °F 35.9 °F 10.4 °F 26% 30.07 in 10.0 mi North 15.0 mph - N/A   Clear
8:55 PM 41.9 °F 34.3 °F 10.8 °F 28% 30.08 in 10.0 mi North 15.0 mph - N/A   Clear
9:15 PM 41.0 °F 32.8 °F 10.9 °F 29% 30.08 in 10.0 mi North 16.1 mph - N/A   Clear